TimeBST,TemperatureF,Dew PointF,Humidity,Sea Level PressureIn,VisibilityMPH,Wind Direction,Wind SpeedMPH,Gust SpeedMPH,PrecipitationIn,Events,Conditions,WindDirDegrees,DateUTC
12:50 AM,51,49,92,29.56,11,SSE,8.1,,,,Mostly Cloudy,160,2013-10-19 23:50:00
6:50 AM,53,52,93,29.47,15,SE,12.7,,,,,140,2013-10-20 05:50:00
8:20 AM,53.6,51.8,94,29.47,6.2,South,11.5,-,N/A,,Partly Cloudy,170,2013-10-20 07:20:00
8:50 AM,55.4,51.8,88,29.47,6.2,South,12.7,-,N/A,,Light Drizzle,170,2013-10-20 07:50:00
9:20 AM,53.6,51.8,94,29.47,6.2,SSE,10.4,-,N/A,,Scattered Clouds,160,2013-10-20 08:20:00
9:50 AM,54,53,94,29.49,8,SSE,9.2,,,Rain,Light Rain Showers,160,2013-10-20 08:50:00
9:50 AM,53.6,51.8,94,29.47,6.2,South,11.5,-,N/A,,Scattered Clouds,170,2013-10-20 08:50:00
10:20 AM,57.2,55.4,94,29.47,6.2,SSE,13.8,-,N/A,,Scattered Clouds,150,2013-10-20 09:20:00
10:50 AM,55.4,53.6,94,29.47,6.2,SSE,12.7,-,N/A,,Scattered Clouds,150,2013-10-20 09:50:00
11:20 AM,55.4,53.6,94,29.47,6.2,SSE,12.7,-,N/A,,Scattered Clouds,150,2013-10-20 10:20:00
11:50 AM,57.2,55.4,94,29.50,6.2,SSE,13.8,-,N/A,,Scattered Clouds,160,2013-10-20 10:50:00
12:20 PM,57.2,53.6,88,29.50,6.2,South,9.2,-,N/A,,Scattered Clouds,180,2013-10-20 11:20:00
12:50 PM,62,57,77,29.50,12,SSE,11.5,,,Rain,Rain,150,2013-10-20 11:50:00
1:20 PM,60.8,53.6,77,29.47,6.2,South,11.5,-,N/A,,Scattered Clouds,180,2013-10-20 12:20:00
1:50 PM,62.6,55.4,77,29.47,6.2,South,15.0,-,N/A,,Scattered Clouds,190,2013-10-20 12:50:00
2:20 PM,64.4,53.6,68,29.47,6.2,South,16.1,-,N/A,,Scattered Clouds,190,2013-10-20 13:20:00
2:50 PM,60.8,53.6,77,29.50,6.2,South,10.4,-,N/A,Rain,Rain Showers,190,2013-10-20 13:50:00
3:20 PM,60.8,53.6,77,29.47,6.2,South,9.2,-,N/A,,Scattered Clouds,180,2013-10-20 14:20:00
3:50 PM,60,55,78,29.50,18,South,6.9,,,Rain,Rain,170,2013-10-20 14:50:00
3:50 PM,62.6,55.4,77,29.47,6.2,SSE,9.2,-,N/A,,Scattered Clouds,160,2013-10-20 14:50:00
6:50 PM,54,51,85,29.52,16,SSE,10.4,,,Rain,Rain,160,2013-10-20 17:50:00
9:50 PM,54,51,88,29.56,17,SW,9.2,,,Rain,Rain,220,2013-10-20 20:50:00